www.pogodaiklimat.ru

Погода и климат >> Архив погоды >> Россия >> Камчатский край >> Мыс Лопатка


ПОГОДА на Мысе Лопатка

  • Прогноз погоды на Мысе Лопатка
  • Монитор погоды на Мысе Лопатка
  • Климат города

АРХИВ ПОГОДЫ на Мысе Лопатка

Время (UTC), дата Ветер
(напр.,м/с)
 
Видим.   Явления Облачность Т
(С)
Тd
(С)
f
(%)
Тe
(С)
Тes
(С)
Комфортность P
(гПа)
Po
(гПа)
Тmin
(С)
Tmax
(С)
R
(мм)
R24
(мм)
S
(см)
06 8.08 З 5 20 км 10/10 600 м
[Sc]
+11.5 +10.1 91 +9 +9 1023.7 1017.6
09 8.08 СЗ 6 20 км 10/10 600 м
[Sc]
+10.8 +9.1 89 +8 +8 1023.5 1017.3 +12.6
12 8.08 З 6 20 км 10/10 600 м
[Sc]
+10.3 +9.0 92 +7 +7 1023.2 1017.0
15 8.08 СЗ 7 20 км 10/10 600 м
[Sc]
+10.3 +8.7 90 +7 +7 1021.9 1015.7
18 8.08 СЗ 6 20 км 10/10 600 м
[Sc]
+9.7 +8.6 93 +6 +6 1020.6 1014.4
21 8.08 СЗ 6 20 км в посл. час морось 10/10 600 м
[Sc]
+9.8 +9.1 95 +6 +6 1020.3 1014.2 +9.3 0.0
00 9.08 З 6 20 км {морось} 10/10 600 м
[Sc]
+10.1 +9.4 95 +7 +7 1019.5 1013.4
03 9.08 З 7
{10}
20 км 8/3 600 м
[Sc Ac trans Cc]
+11.1 +9.6 90 +8 +9 1017.6 1011.5
06 9.08 З 8-10
{10}
20 км 9/9 600 м
[Sc]
+10.4 +9.3 93 +6 +6 1017.1 1011.0
09 9.08 СЗ 7
{10}
20 км 9/9 600 м
[Sc]
+10.0 +9.1 94 +6 +6 1016.0 1009.9 +11.3
12 9.08 СЗ 8-10
{10}
20 км 10/10 600 м
[Sc]
+10.0 +9.0 93 +6 +6 1014.8 1008.7
15 9.08 З 9-11
{12}
20 км 10/10 600 м
[Sc]
+9.8 +8.1 89 +5 +5 1013.3 1007.2
18 9.08 СЗ 11-14
{14}
20 км 9/9 600 м
[Sc]
+9.8 +8.8 93 +5 +5 1011.9 1005.8
21 9.08 СЗ 10-12
{14}
50 км 1/1 600 м
[Sc]
+10.5 +9.6 94 +6 +6 1011.2 1005.1 +9.6
00 10.08 СЗ 10-13
{13}
20 км 6/1 600 м
[Sc Ac As]
+11.5 +10.3 92 +8 +8 1010.7 1004.7
03 10.08 СЗ 10-12
{13}
50 км 8/5 600 м
[Sc Ci fib]
+11.7 +10.0 89 +8 +8 1009.8 1003.8
06 10.08 СЗ 10-11
{12}
50 км 3/1 600 м
[Sc Ci sp]
+11.6 +10.3 92 +8 +8 1009.4 1003.4
09 10.08 СЗ 9-11
{12}
50 км 8/1 600 м
[Sc Ac trans Cc]
+10.0 +9.6 97 +6 +6 1009.3 1003.2 +12.3
12 10.08 СЗ 8-10
{11}
50 км 3/1 600 м
[Sc Ac trans Ci fib]
+10.2 +9.7 97 +6 +6 1009.1 1003.0
15 10.08 СЗ 6
{10}
20 км 8/3 600 м
[Sc Ac trans]
+10.4 +10.0 97 +7 +7 1008.9 1002.8
18 10.08 С 5 50 км 1/1 600 м
[Sc]
+9.5 +9.2 98 +6 +6 1008.9 1002.8
21 10.08 С 5 50 км 1/1 600 м
[Sc]
+11.3 +11.0 98 +8 +10 1009.6 1003.6 +9.3
00 11.08 СЗ 4 50 км 3/1 600 м
[Sc Ci fib]
+12.8 +11.6 92 +11 +18 1010.7 1004.7
03 11.08 СЗ 5 50 км 3/1 600 м
[Sc Ci fib]
+13.6 +11.9 89 +12 +18 1011.2 1005.2
06 11.08 СЗ 3 50 км 8/0
[Ci fib]
+12.5 +11.1 91 +11 +14 1011.3 1005.3
09 11.08 С 4 50 км 8/0
[Cc]
+9.9 +9.5 97 +7 +7 1012.6 1006.5 +13.7
12 11.08 СЗ 1 2000 м дымка 10/10 100 м
[St]
+9.7 +9.5 99 +9 +9 1013.9 1007.8
15 11.08 В 5 4000 м дымка 10/10 200 м
[St]
+10.7 +10.3 97 +8 +8 1013.9 1007.8
18 11.08 ЮВ 6 20 км 10/10 600 м
[Sc]
+11.1 +10.0 93 +8 +8 1014.6 1008.6
21 11.08 В 6 20 км 10/10 600 м
[Sc]
+12.1 +10.3 89 +9 +9 1015.3 1009.3 +9.6
00 12.08 ЮВ 4 20 км 9/1 600 м
[Sc Ci fib]
+13.4 +11.5 88 +12 +18 1016.2 1010.2
03 12.08 ЮВ 5 50 км 9/1 600 м
[Sc Ac trans Cc]
+14.3 +12.0 86 +13 +16 1016.3 1010.3
06 12.08 Ю 4 20 км 9/3 600 м
[Sc Ac trans Ci sp]
+13.6 +11.5 87 +12 +13 1016.7 1010.7
09 12.08 ЮВ 5 20 км 10/10 600 м
[Sc]
+11.7 +10.2 91 +9 +9 1017.0 1011.0 +14.3
12 12.08 ЮВ 6 20 км 10/10 600 м
[Sc]
+11.2 +10.4 95 +8 +8 1017.5 1011.5
15 12.08 ЮВ 4 20 км 10/10 600 м
[Sc]
+10.6 +10.3 98 +8 +8 1018.0 1011.9
18 12.08 Ю 4 20 км 9/9 600 м
[Sc]
+10.8 +9.6 92 +8 +8 1017.8 1011.7
21 12.08 Ю 4 20 км 10/10 600 м
[Sc]
+10.9 +10.5 97 +8 +8 1018.0 1011.9 +10.3
00 13.08 ЮВ 5 20 км 10/10 600 м
[Sc]
+11.9 +11.0 94 +9 +9 1018.1 1012.1
03 13.08 ЮВ 6 20 км слабый дождь 10/8 600 м
[Sc Ac As]
+11.6 +11.2 97 +9 +9 1017.8 1011.8
06 13.08 ЮВ 7 20 км слабый дождь 10/3 600 м
[Sc Ac As]
+11.2 +10.9 98 +8 +8 1017.5 1011.5
09 13.08 ЮВ 8-10
{10}
4000 м дождь 10/10 300 м
[Frnb Ns]
+11.0 +10.7 98 +7 +7 1017.2 1011.1 +12.0 3
12 13.08 ЮВ 8-11
{11}
2000 м дождь 10/10 100 м
[Frnb Ns]
+10.9 +10.7 99 +7 +7 1016.5 1010.4
15 13.08 Ю 6
{12}
2000 м слабый дождь 10/10 100 м
[Frnb Ns]
+10.7 +10.6 99 +7 +7 1016.1 1010.0
18 13.08 Ю 8-11
{12}
2000 м в посл. час ливневой дождь 10/10 100 м
[St]
+10.8 +10.7 99 +7 +7 1015.4 1009.3
21 13.08 Ю 7-10
{12}
2000 м морось 10/10 100 м
[St]
+10.6 +10.5 99 +7 +7 1015.5 1009.4 +10.6 14
00 14.08 ЮВ 7
{11}
4000 м слабый ливневой дождь {морось} 10/10 200 м
[Cb cap]
+10.9 +10.8 99 +7 +7 1015.5 1009.4
03 14.08 ЮВ 9-11
{11}
4000 м слабый ливневой дождь 10/10 300 м
[Cb cap]
+10.6 +10.5 99 +6 +6 1014.6 1008.5
06 14.08 ЮВ 9-11
{12}
2000 м слабый ливневой дождь 10/10 100 м
[Cb cap]
+10.4 +10.3 99 +6 +6 1013.7 1007.6
09 14.08 ЮВ 8-10
{12}
2000 м сильная морось {ливн. осадки} 10/10 100 м
[St]
+10.3 +10.2 99 +6 +6 1013.6 1007.5 +11.0 11
12 14.08 В 8
{10}
2000 м сильная морось {ливн. осадки} 10/10 100 м
[St]
+10.4 +10.3 99 +6 +6 1014.0 1007.9
15 14.08 В 7
{10}
2000 м дымка {морось} 10/10 100 м
[St]
+10.6 +10.5 99 +7 +7 1013.4 1007.3
18 14.08 В 9-11
{12}
2000 м дымка {морось} 10/10 100 м
[St]
+10.9 +10.8 99 +7 +7 1013.5 1007.4
21 14.08 В 12-15
{15}
4000 м в посл. час морось 10/10 200 м
[St]
+11.5 +11.4 99 +7 +7 1013.7 1007.7 +10.2 1
00 15.08 В 11-15
{16}
20 км в посл. час морось 9/9 300 м
[St]
+12.0 +11.9 99 +8 +8 1014.1 1008.0
03 15.08 В 9-11
{15}
20 км 9/9 600 м
[Sc]
+12.7 +11.7 94 +9 +9 1013.7 1007.7

 

Местоположение метеостанции Мыс Лопатка (Камчатский край, Россия): широта 50.87 долгота 156.60 высота над уровнем моря 50 м.

В архиве по умолчанию представлена погода на Мысе Лопатка за последнюю неделю. Архивные данные за месяц целиком и за предыдущие месяцы, начиная с января 2011 года, Вы можете получить, выбрав интересующий диапазон дат из раскрывающегося списка и нажав кнопку "Ввод!".


*Определитесь, кто Вы:
робот инопланетянин человек

Внимание! Время в таблицах - всемирное. Для получения местного времени необходимо прибавить поправку, которая на Мысе Лопатка равна 12 ч.

Смотрите также архив погоды в соседних городах и на ближайших метеорологических станциях:

Погода в Северо-Курильске (Сахалинская область, Россия) (41 км)
Погода в Озерной (Камчатский край, Россия) (69 км)
Погода в Водопадной (Камчатский край, Россия) (144 км)
Погода в Большерецке (Камчатский край, Россия) (219 км)
Погода в Начиках (Камчатский край, Россия) (261 км)
Погода в Петропавловск-Камчатском (Камчатский край, Россия) (261 км)
Погода в Петропавловском Маяке (Камчатский край, Россия) (266 км)
Погода в Сосновке (Камчатский край, Россия) (272 км)
Погода в Петропавловск-Камч. 2 (Камчатский край, Россия) (278 км)
Погода в Пущино (Камчатский край, Россия) (380 км)

Пояснения к столбцам:

Ветер - указаны скорость ветра в м/с - средняя за 10 мин, порывы в срок и между сроками (в фигурных скобках) и направление, откуда дует ветер: С - северный, СВ - северо-восточный, В - восточный, ЮВ - юго-восточный, Ю - южный, ЮЗ - юго-западный, З - западный, СЗ - северо-западный.
Видимость - горизонтальная дальность видимости в метрах или километрах. При видимости от 1 до 10 км при отсутствии осадков обычно наблюдается дымка, при ухудшении видимости до 1 км и менее - туман. В сухую погоду видимость может ухудшаться дымом, пылью или мглою.
Явления - указаны атмосферные явления, наблюдавшиеся в срок или в последний час перед сроком; фигурными скобками обозначены явления, наблюдавшиеся между сроками (за 1-3 часа до срока); квадратными скобками обозначены град или гололедные отложения с указанием их диаметра в мм.
Облачность - указаны через наклонную черту общая и нижняя облачность в баллах и высота нижней границы облаков в метрах; квадратными скобками обозначены формы облаков: Ci - перистые, Cs - перисто-слоистые, Cc - перисто-кучевые, Ac - высококучевые, As - высокослоистые, Sc - слоисто-кучевые, Ns - слоисто-дождевые, Cu - кучевые, Cb - кучево-дождевые. Подробнее классификацию облаков см. в Атласе облаков (PDF).
T - Температура воздуха - температура, измеренная на высоте 2 м над землей.
Td - Температура точки росы - температура, при понижении до которой содержащийся в воздухе водяной пар достигнет насыщения.
f - Относительная влажность воздуха - влажноcть воздуха, измеренная на высоте 2 м над землей.
Te - Эффективная температура - температура, которую ощущает одетый по сезону человек в тени. Характеристика душности погоды. При расчете учитывается влияние влажности воздуха и скорости ветра на теплоощущения человека.
Tes - Эффективная температура на солнце - температура, которую ощущает человек, с поправкой на солнечный нагрев. Характеристика знойности погоды. Зависит от высоты солнца над горизонтом, облачности и скорости ветра. Ночью, в пасмурную погоду, а также при ветре 12 м/с и более поправка равна нулю.
P - Атмосферное давление - приведенное к уровню моря атмосферное давление.
Po - Атмосферное давление - измеренное на уровне метеостанции атмосферное давление.
Tmin - Минимальная температура - минимум температуры воздуха на высоте 2 м над землей.
Tmax - Максимальная температура - максимум температуры воздуха на высоте 2 м над землей.
R - Количество осадков - Количество выпавших осадков за период времени, мм. При наведении курсора мыши на число - период времени, за который выпало указанное количество осадков.
R24 - Количество осадков - Количество выпавших осадков за 24 часа, мм.
S - Снежный покров - Высота снежного покрова, см. При наведении курсора мыши на число - состояние снежного покрова и степень покрытия местности в баллах.